Year,Month,Day,Hour,Minute,Value (Times are PST for temperature in C)
2010,12,15,14,50,6.00
2010,12,15,14,51,6.00
2010,12,15,14,52,5.90
2010,12,15,14,53,5.90
2010,12,15,14,54,5.90
2010,12,15,14,55,5.90
2010,12,15,14,56,5.90
2010,12,15,14,57,5.90
2010,12,15,14,58,5.90
2010,12,15,14,59,5.80
2010,12,15,15,00,5.80
2010,12,15,15,01,5.80
2010,12,15,15,02,5.80
2010,12,15,15,03,5.80
2010,12,15,15,04,5.80
2010,12,15,15,05,5.70
2010,12,15,15,06,5.70
2010,12,15,15,07,5.70
2010,12,15,15,08,5.70
2010,12,15,15,09,5.70
2010,12,15,15,10,5.70
2010,12,15,15,11,5.70
2010,12,15,15,12,5.70
2010,12,15,15,13,5.70
2010,12,15,15,14,5.70
2010,12,15,15,15,5.70
2010,12,15,15,16,5.70
2010,12,15,15,17,5.70
2010,12,15,15,18,5.70
2010,12,15,15,19,5.70
2010,12,15,15,20,5.70
2010,12,15,15,21,5.70
2010,12,15,15,22,5.70
2010,12,15,15,23,5.70
2010,12,15,15,24,5.60
2010,12,15,15,25,5.60
2010,12,15,15,26,5.60
2010,12,15,15,27,5.60
2010,12,15,15,28,5.60
2010,12,15,15,29,5.60
2010,12,15,15,30,5.60
2010,12,15,15,31,5.60
2010,12,15,15,32,5.60
2010,12,15,15,33,5.60
2010,12,15,15,34,5.70
2010,12,15,15,35,5.70
2010,12,15,15,36,5.70
2010,12,15,15,37,5.70
2010,12,15,15,38,5.70
2010,12,15,15,39,5.60
2010,12,15,15,40,5.60
2010,12,15,15,41,5.60
2010,12,15,15,42,5.60
2010,12,15,15,43,5.60
2010,12,15,15,44,5.60
2010,12,15,15,45,5.70
2010,12,15,15,46,5.70
2010,12,15,15,47,5.70
2010,12,15,15,48,5.70
2010,12,15,15,49,5.70
2010,12,15,15,50,5.70
2010,12,15,15,51,5.70
2010,12,15,15,52,5.60
2010,12,15,15,53,5.60
2010,12,15,15,54,5.60
2010,12,15,15,55,5.60
2010,12,15,15,56,5.60
2010,12,15,15,57,5.60
2010,12,15,15,58,5.60
2010,12,15,15,59,5.60
2010,12,15,16,00,5.50
2010,12,15,16,01,5.50
2010,12,15,16,02,5.50
2010,12,15,16,03,5.50
2010,12,15,16,04,5.50
2010,12,15,16,05,5.50
2010,12,15,16,06,5.50
2010,12,15,16,07,5.40
2010,12,15,16,08,5.40
2010,12,15,16,09,5.40
2010,12,15,16,10,5.40
2010,12,15,16,11,5.40
2010,12,15,16,12,5.40
2010,12,15,16,13,5.40
2010,12,15,16,14,5.40
2010,12,15,16,15,5.30
2010,12,15,16,16,5.30
2010,12,15,16,17,5.30
2010,12,15,16,18,5.30
2010,12,15,16,19,5.30
2010,12,15,16,20,5.30
2010,12,15,16,21,5.30
2010,12,15,16,22,5.30
2010,12,15,16,23,5.30
2010,12,15,16,24,5.20
2010,12,15,16,25,5.20
2010,12,15,16,26,5.20
2010,12,15,16,27,5.20
2010,12,15,16,28,5.20
2010,12,15,16,29,5.10
2010,12,15,16,30,5.10
2010,12,15,16,31,5.10
2010,12,15,16,32,5.10
2010,12,15,16,33,5.10
2010,12,15,16,34,5.10
2010,12,15,16,35,5.10
2010,12,15,16,36,5.10
2010,12,15,16,37,5.10
2010,12,15,16,38,5.10
2010,12,15,16,39,5.10
2010,12,15,16,40,5.10
2010,12,15,16,41,5.10
2010,12,15,16,42,5.10
2010,12,15,16,43,5.10
2010,12,15,16,44,5.10
2010,12,15,16,45,5.10
2010,12,15,16,46,5.10
2010,12,15,16,47,5.10
2010,12,15,16,48,5.10
2010,12,15,16,49,5.10
2010,12,15,16,50,5.10
2010,12,15,16,51,5.10
2010,12,15,16,52,5.10
2010,12,15,16,53,5.10
2010,12,15,16,54,5.10
2010,12,15,16,55,5.10
2010,12,15,16,56,5.10
2010,12,15,16,57,5.10
2010,12,15,16,58,5.10
2010,12,15,16,59,5.10
2010,12,15,17,00,5.10
2010,12,15,17,01,5.10
2010,12,15,17,02,5.10
2010,12,15,17,03,5.10
2010,12,15,17,04,5.10
2010,12,15,17,05,5.10
2010,12,15,17,06,5.10
2010,12,15,17,07,5.10
2010,12,15,17,08,5.10
2010,12,15,17,09,5.10
2010,12,15,17,10,5.10
2010,12,15,17,11,5.10
2010,12,15,17,12,5.10
2010,12,15,17,13,5.10
2010,12,15,17,14,5.10
2010,12,15,17,15,5.10
2010,12,15,17,16,5.10
2010,12,15,17,17,5.10
2010,12,15,17,18,5.10
2010,12,15,17,19,5.10
2010,12,15,17,20,5.10
2010,12,15,17,21,5.10
2010,12,15,17,22,5.10
2010,12,15,17,23,5.10
2010,12,15,17,24,5.00
2010,12,15,17,25,4.90
2010,12,15,17,26,4.90
2010,12,15,17,27,4.90
2010,12,15,17,28,4.90
2010,12,15,17,29,4.90
2010,12,15,17,30,4.90
2010,12,15,17,31,4.90
2010,12,15,17,32,4.80
2010,12,15,17,33,4.80
2010,12,15,17,34,4.80
2010,12,15,17,35,4.80
2010,12,15,17,36,4.80
2010,12,15,17,37,4.80
2010,12,15,17,38,4.80
2010,12,15,17,39,4.80
2010,12,15,17,40,4.70
2010,12,15,17,41,4.70
2010,12,15,17,42,4.70
2010,12,15,17,43,4.70
2010,12,15,17,44,4.70
2010,12,15,17,45,4.70
2010,12,15,17,46,4.70
2010,12,15,17,47,4.70
2010,12,15,17,48,4.70
2010,12,15,17,49,4.70
2010,12,15,17,50,4.70
2010,12,15,17,51,4.70
2010,12,15,17,52,4.70
2010,12,15,17,53,4.70
2010,12,15,17,54,4.70
2010,12,15,17,55,4.70
2010,12,15,17,56,4.70
2010,12,15,17,57,4.70
2010,12,15,17,58,4.60
2010,12,15,17,59,4.60
2010,12,15,18,00,4.60
2010,12,15,18,01,4.60
2010,12,15,18,02,4.60
2010,12,15,18,03,4.60
2010,12,15,18,04,4.60
2010,12,15,18,05,4.60
2010,12,15,18,06,4.60
2010,12,15,18,07,4.60
2010,12,15,18,08,4.60
2010,12,15,18,09,4.60
2010,12,15,18,10,4.60
2010,12,15,18,11,4.60
2010,12,15,18,12,4.60
2010,12,15,18,13,4.60
2010,12,15,18,14,4.60
2010,12,15,18,15,4.60
2010,12,15,18,16,4.60
2010,12,15,18,17,4.60
2010,12,15,18,18,4.60
2010,12,15,18,19,4.60
2010,12,15,18,20,4.60
2010,12,15,18,21,4.50
2010,12,15,18,22,4.50
2010,12,15,18,23,4.50
2010,12,15,18,24,4.50
2010,12,15,18,25,4.40
2010,12,15,18,26,4.40
2010,12,15,18,27,4.40
2010,12,15,18,28,4.40
2010,12,15,18,29,4.30
2010,12,15,18,30,4.30
2010,12,15,18,31,4.30
2010,12,15,18,32,4.20
2010,12,15,18,33,4.20
2010,12,15,18,34,4.20
2010,12,15,18,35,4.20
2010,12,15,18,36,4.10
2010,12,15,18,37,4.10
2010,12,15,18,38,4.00
2010,12,15,18,39,4.00
2010,12,15,18,40,4.00
2010,12,15,18,41,3.90
2010,12,15,18,42,3.90
2010,12,15,18,43,3.90
2010,12,15,18,44,3.90
2010,12,15,18,45,3.90
2010,12,15,18,46,3.90
2010,12,15,18,47,3.90
2010,12,15,18,48,3.90
2010,12,15,18,49,3.90
2010,12,15,18,50,3.90
2010,12,15,18,51,3.90
2010,12,15,18,52,3.90
2010,12,15,18,53,3.90
2010,12,15,18,54,3.90
2010,12,15,18,55,3.90
2010,12,15,18,56,3.90
2010,12,15,18,57,3.90
2010,12,15,18,58,3.90
2010,12,15,18,59,3.90
2010,12,15,19,00,3.90
2010,12,15,19,01,3.80
2010,12,15,19,02,3.80
2010,12,15,19,03,3.80
2010,12,15,19,04,3.80
2010,12,15,19,05,3.80
2010,12,15,19,06,3.80
2010,12,15,19,07,3.80
2010,12,15,19,08,3.80
2010,12,15,19,09,3.80
2010,12,15,19,10,3.80
2010,12,15,19,11,3.80
2010,12,15,19,12,3.80
2010,12,15,19,13,3.80
2010,12,15,19,14,3.80
2010,12,15,19,15,3.80
2010,12,15,19,16,3.80
2010,12,15,19,17,3.80
2010,12,15,19,18,3.80
2010,12,15,19,19,3.80
2010,12,15,19,20,3.80
2010,12,15,19,21,3.80
2010,12,15,19,22,3.80
2010,12,15,19,23,3.80
2010,12,15,19,24,3.70
2010,12,15,19,25,3.70
2010,12,15,19,26,3.70
2010,12,15,19,27,3.60
2010,12,15,19,28,3.60
2010,12,15,19,29,3.60
2010,12,15,19,30,3.60
2010,12,15,19,31,3.50
2010,12,15,19,32,3.50
2010,12,15,19,33,3.50
2010,12,15,19,34,3.50
2010,12,15,19,35,3.50
2010,12,15,19,36,3.50
2010,12,15,19,37,3.40
2010,12,15,19,38,3.40
2010,12,15,19,39,3.40
2010,12,15,19,40,3.40
2010,12,15,19,41,3.40
2010,12,15,19,42,3.30
2010,12,15,19,43,3.30
2010,12,15,19,44,3.30
2010,12,15,19,45,3.30
2010,12,15,19,46,3.30
2010,12,15,19,47,3.30
2010,12,15,19,48,3.30
2010,12,15,19,49,3.30
2010,12,15,19,50,3.30
2010,12,15,19,51,3.30
2010,12,15,19,52,3.30
2010,12,15,19,53,3.30
2010,12,15,19,54,3.30
2010,12,15,19,55,3.40
2010,12,15,19,56,3.40
2010,12,15,19,57,3.40
2010,12,15,19,58,3.40
2010,12,15,19,59,3.40
2010,12,15,20,00,3.40
2010,12,15,20,01,3.40
2010,12,15,20,02,3.40
2010,12,15,20,03,3.40
2010,12,15,20,04,3.40
2010,12,15,20,05,3.40
2010,12,15,20,06,3.40
2010,12,15,20,07,3.40
2010,12,15,20,08,3.30
2010,12,15,20,09,3.30
2010,12,15,20,10,3.30
2010,12,15,20,11,3.30
2010,12,15,20,12,3.20
2010,12,15,20,13,3.20
2010,12,15,20,14,3.20
2010,12,15,20,15,3.10
2010,12,15,20,16,3.10
2010,12,15,20,17,3.10
2010,12,15,20,18,3.10
2010,12,15,20,19,3.10
2010,12,15,20,20,3.10
2010,12,15,20,21,3.10
2010,12,15,20,22,3.10
2010,12,15,20,23,3.00
2010,12,15,20,24,2.90
2010,12,15,20,25,2.90
2010,12,15,20,26,2.90
2010,12,15,20,27,2.90
2010,12,15,20,28,2.80
2010,12,15,20,29,2.80
2010,12,15,20,30,2.80
2010,12,15,20,31,2.80
2010,12,15,20,32,2.80
2010,12,15,20,33,2.80
2010,12,15,20,34,2.80
2010,12,15,20,35,2.80
2010,12,15,20,36,2.80
2010,12,15,20,37,2.80
2010,12,15,20,38,2.80
2010,12,15,20,39,2.80
2010,12,15,20,40,2.90
2010,12,15,20,41,2.90
2010,12,15,20,42,2.90
2010,12,15,20,43,2.90
2010,12,15,20,44,2.80
2010,12,15,20,45,2.80
2010,12,15,20,46,2.80
2010,12,15,20,47,2.80
2010,12,15,20,48,2.70
2010,12,15,20,49,2.70
2010,12,15,20,50,2.70
2010,12,15,20,51,2.70
2010,12,15,20,52,2.70
2010,12,15,20,53,2.70
2010,12,15,20,54,2.70
2010,12,15,20,55,2.60
2010,12,15,20,56,2.60
2010,12,15,20,57,2.60
2010,12,15,20,58,2.60
2010,12,15,20,59,2.60
2010,12,15,21,00,2.60
2010,12,15,21,01,2.60
2010,12,15,21,02,2.50
2010,12,15,21,03,2.50
2010,12,15,21,04,2.50
2010,12,15,21,05,2.50
2010,12,15,21,06,2.50
2010,12,15,21,07,2.50
2010,12,15,21,08,2.50
2010,12,15,21,09,2.60
2010,12,15,21,10,2.60
2010,12,15,21,11,2.60
2010,12,15,21,12,2.60
2010,12,15,21,13,2.70
2010,12,15,21,14,2.70
2010,12,15,21,15,2.70
2010,12,15,21,16,2.70
2010,12,15,21,17,2.70
2010,12,15,21,18,2.70
2010,12,15,21,19,2.70
2010,12,15,21,20,2.70
2010,12,15,21,21,2.70
2010,12,15,21,22,2.70
2010,12,15,21,23,2.70
2010,12,15,21,24,2.70
2010,12,15,21,25,2.70
2010,12,15,21,26,2.70
2010,12,15,21,27,2.70
2010,12,15,21,28,2.70
2010,12,15,21,29,2.70
2010,12,15,21,30,2.70
2010,12,15,21,31,2.70
2010,12,15,21,32,2.70
2010,12,15,21,33,2.70
2010,12,15,21,34,2.70
2010,12,15,21,35,2.70
2010,12,15,21,36,2.70
2010,12,15,21,37,2.70
2010,12,15,21,38,2.70
2010,12,15,21,39,2.70
2010,12,15,21,40,2.70
2010,12,15,21,41,2.70
2010,12,15,21,42,2.70
2010,12,15,21,43,2.70
2010,12,15,21,44,2.70
2010,12,15,21,45,2.70
2010,12,15,21,46,2.70
2010,12,15,21,47,2.70
2010,12,15,21,48,2.70
2010,12,15,21,49,2.70
2010,12,15,21,50,2.70
2010,12,15,21,51,2.70
2010,12,15,21,52,2.70
2010,12,15,21,53,2.70
2010,12,15,21,54,2.70
2010,12,15,21,55,2.70
2010,12,15,21,56,2.60
2010,12,15,21,57,2.60
2010,12,15,21,58,2.60
2010,12,15,21,59,2.60
2010,12,15,22,00,2.60
2010,12,15,22,01,2.60
2010,12,15,22,02,2.60
2010,12,15,22,03,2.70
2010,12,15,22,04,2.70
2010,12,15,22,05,2.70
2010,12,15,22,06,2.70
2010,12,15,22,07,2.70
2010,12,15,22,08,2.60
2010,12,15,22,09,2.60
2010,12,15,22,10,2.60
2010,12,15,22,11,2.60
2010,12,15,22,12,2.60
2010,12,15,22,13,2.60
2010,12,15,22,14,2.60
2010,12,15,22,15,2.50
2010,12,15,22,16,2.50
2010,12,15,22,17,2.50
2010,12,15,22,18,2.50
2010,12,15,22,19,2.50
2010,12,15,22,20,2.50
2010,12,15,22,21,2.50
2010,12,15,22,22,2.50
2010,12,15,22,23,2.40
2010,12,15,22,24,2.40
2010,12,15,22,25,2.40
2010,12,15,22,26,2.40
2010,12,15,22,27,2.30
2010,12,15,22,28,2.30
2010,12,15,22,29,2.30
2010,12,15,22,30,2.30
2010,12,15,22,31,2.30
2010,12,15,22,32,2.30
2010,12,15,22,33,2.30
2010,12,15,22,34,2.20
2010,12,15,22,35,2.20
2010,12,15,22,36,2.20
2010,12,15,22,37,2.20
2010,12,15,22,38,2.20
2010,12,15,22,39,2.20
2010,12,15,22,40,2.10
2010,12,15,22,41,2.10
2010,12,15,22,42,2.10
2010,12,15,22,43,2.00
2010,12,15,22,44,2.00
2010,12,15,22,45,2.00
2010,12,15,22,46,2.00
2010,12,15,22,47,2.00
2010,12,15,22,48,1.90
2010,12,15,22,49,1.90
2010,12,15,22,50,1.90
2010,12,15,22,51,1.90
2010,12,15,22,52,1.90
2010,12,15,22,53,1.90
2010,12,15,22,54,1.90
2010,12,15,22,55,1.80
2010,12,15,22,56,1.80
2010,12,15,22,57,1.80
2010,12,15,22,58,1.80
2010,12,15,22,59,1.80
2010,12,15,23,00,1.80
2010,12,15,23,01,1.80
2010,12,15,23,02,1.80
2010,12,15,23,03,1.80
2010,12,15,23,04,1.80
2010,12,15,23,05,1.80
2010,12,15,23,06,1.80
2010,12,15,23,07,1.80
2010,12,15,23,08,1.80
2010,12,15,23,09,1.80
2010,12,15,23,10,1.80
2010,12,15,23,11,1.70
2010,12,15,23,12,1.70
2010,12,15,23,13,1.70
2010,12,15,23,14,1.70
2010,12,15,23,15,1.60
2010,12,15,23,16,1.60
2010,12,15,23,17,1.60
2010,12,15,23,18,1.60
2010,12,15,23,19,1.60
2010,12,15,23,20,1.60
2010,12,15,23,21,1.60
2010,12,15,23,22,1.60
2010,12,15,23,23,1.60
2010,12,15,23,24,1.60
2010,12,15,23,25,1.60
2010,12,15,23,26,1.60
2010,12,15,23,27,1.60
